This demonstration page uses our WeatherBlox Daily Observations layout. Learn more.

Left ArrowRight Arrow

38.80484, -77.04692

Hourly Observations for February 16, 2016

Temp ( °F °C ) Dew Point ( °F °C ) Humidity (%) Winds ( mph kmh ) Pressure ( in mb ) Visibility ( mi km ) Precip ( " mm )
12:41 am 00:41 Cloudy 30 -1 28 -2 93 93 Calm 30.03 1017 7 11 0.00 0.00
12:46 am 00:46 Cloudy with Light Freezing Rain 30 -1 28 -2 93 93 ENE 3 6 30.03 1017 8 13 0.00 0.00
12:52 am 00:52 Cloudy with Light Freezing Rain 31 -0.6 29 -1.7 92 92 ENE 3 6 30.01 1016 8 13 0.03 0.76
12:59 am 00:59 Cloudy with Light Freezing Drizzle 31 -0.6 29 -1.7 92 92 ENE 3 6 30.03 1017 8 13 0.00 0.03
1:07 am 01:07 Cloudy with Light Freezing Rain 31 -0.6 29 -1.7 92 92 Calm 30.03 1017 7 11 0.00 0.03
1:52 am 01:52 Cloudy with Light Freezing Rain 31 -0.6 29 -1.7 92 92 VRB 5 7 29.98 1015 5 8 0.01 0.25
1:54 am 01:54 Cloudy with Light Freezing Drizzle 30 -1 28 -2 93 93 VRB 5 7 29.97 1015 5 8 0.00 0.00
2:17 am 02:17 Cloudy with Light Freezing Drizzle 31 -0.6 29 -1.7 92 92 ENE 6 9 29.97 1015 2 3 0.00 0.03
2:39 am 02:39 Mostly Cloudy with Freezing Fog 31 -0.6 30 -1.1 96 96 NE 7 11 29.94 1014 1 1 0.00 0.03
2:44 am 02:44 Mostly Cloudy with Freezing Fog 30 -1 30 -1 100 100 NE 5 7 29.94 1014 1 2 0.00 0.00
2:52 am 02:52 Mostly Cloudy with Freezing Fog 31 -0.6 30 -1.1 96 96 NE 7 11 29.92 1013 1 2 0.00 0.03
3:40 am 03:40 Mostly Cloudy with Freezing Fog 30 -1 30 -1 100 100 NE 8 13 29.88 1012 1 2 0.00 0.00
3:52 am 03:52 Mostly Cloudy with Freezing Fog 31 -0.6 30 -1.1 96 96 ENE 9 15 29.84 1011 1 2 0.00 0.00
4:05 am 04:05 Mostly Cloudy with Freezing Fog 31 -0.6 30 -1.1 96 96 NE 9 15 29.83 1010 1 2 0.00 0.00
4:52 am 04:52 Mostly Cloudy with Freezing Fog 32 0 31 -0.6 96 96 NNE 7 11 29.75 1007 0 0 0.00 0.00
4:58 am 04:58 Cloudy with Freezing Fog 32 0 30 -1 93 93 N 5 7 29.74 1007 1 2 0.00 0.00
5:05 am 05:05 Cloudy with Freezing Fog 32 0 32 0 100 100 N 5 7 29.74 1007 4 6 0.00 0.00
5:52 am 05:52 Cloudy 40 4.4 38 3.3 93 93 VRB 5 7 29.70 1006 10 16 0.00 0.00
6:41 am 06:41 Cloudy 50 10 45 7.2 83 83 SSE 14 22 29.68 1005 10 16 0.00 0.00
6:52 am 06:52 Cloudy with Light Rain 51 10.6 46 7.8 83 83 SSE 20 31 29.66 1005 10 16 0.00 0.03
7:40 am 07:40 Cloudy with Rain 50 10 46 8 88 88 SSE 17 28 29.65 1004 4 6 0.00 0.00
7:52 am 07:52 Cloudy with Light Rain 50 10 46 7.8 86 86 SSE 15 24 29.63 1003 6 10 0.07 1.78
8:52 am 08:52 Cloudy with Rain 52 11.1 49 9.4 89 89 SSE 20 31 29.59 1002 4 6 0.09 2.29
9:23 am 09:23 Cloudy with Rain 53 11.7 50 10 89 89 SSE 18 30 29.56 1001 3 4 0.07 1.78
9:31 am 09:31 Cloudy with Rain 52 11.1 50 10 93 93 SW 25 41 29.59 1002 2 2 0.11 2.79
9:39 am 09:39 Cloudy with Heavy Rain 49 9.4 46 7.8 90 90 WSW 15 24 29.59 1002 3 4 0.18 4.57
9:42 am 09:42 Cloudy with Rain 48 9 45 7 87 87 SW 13 20 29.59 1002 3 5 0.00 0.00
9:52 am 09:52 Cloudy with Rain 47 8.3 45 7.2 93 93 S 7 11 29.59 1002 5 8 0.22 5.59
10:52 am 10:52 Cloudy with Rain 45 7.2 44 6.7 97 97 S 7 11 29.56 1001 4 6 0.17 4.32
11:14 am 11:14 Cloudy with Rain 43 6 43 6 100 100 SSE 3 6 29.53 1000 2 2 0.00 0.00
11:17 am 11:17 Cloudy with Rain 43 6.1 42 5.6 97 97 SSW 7 11 29.53 1000 2 2 0.06 1.52
11:24 am 11:24 Cloudy with Light Rain 45 7 45 7 100 100 SW 8 13 29.53 1000 2 3 0.00 0.00
11:29 am 11:29 Cloudy with Light Rain 46 7.8 45 7.2 96 96 WSW 6 9 29.53 1000 4 6 0.08 2.03
11:44 am 11:44 Cloudy with Light Rain 46 8 45 7 93 93 W 10 17 29.56 1001 1 2 0.00 0.00
11:52 am 11:52 Cloudy with Rain 46 7.8 45 7.2 96 96 WSW 9 15 29.55 1001 1 2 0.10 2.54
11:59 am 11:59 Cloudy with Light Rain 46 7.8 45 7.2 96 96 SW 8 13 29.56 1001 3 5 0.00 0.03
12:23 pm 12:23 Cloudy with Light Rain 47 8.3 45 7.2 93 93 WSW 12 19 29.56 1001 2 3 0.01 0.25
12:34 pm 12:34 Cloudy with Mist and Fog 46 8 45 7 93 93 WSW 12 19 29.56 1001 6 10 0.00 0.00
12:36 pm 12:36 Cloudy with Mist and Fog 46 8 45 7 93 93 WSW 12 19 29.59 1002 6 10 0.00 0.00
12:52 pm 12:52 Cloudy 48 8.9 45 7.2 89 89 W 10 17 29.57 1001 10 16 0.01 0.25
1:07 pm 13:07 Cloudy 48 8.9 45 7.2 89 89 W 10 17 29.56 1001 10 16 0.00 0.00
1:52 pm 13:52 Mostly Cloudy 50 10 40 4.4 68 68 W 16 26 29.57 1001 10 16 0.00 0.00
2:52 pm 14:52 Mostly Cloudy 50 10 38 3.3 63 63 W 17 28 29.61 1003 10 16 0.00 0.00
3:52 pm 15:52 Partly Cloudy 51 10.6 34 1.1 52 52 NW 14 22 29.65 1004 10 16 0.00 0.00
4:52 pm 16:52 Partly Cloudy 49 9.4 33 0.6 55 55 WNW 13 20 29.69 1005 10 16 0.00 0.00
5:52 pm 17:52 Partly Cloudy 46 7.8 31 -0.6 56 56 W 14 22 29.72 1006 10 16 0.00 0.00
6:52 pm 18:52 Partly Cloudy 44 6.7 31 -0.6 60 60 WNW 10 17 29.75 1008 10 16 0.00 0.00
7:52 pm 19:52 Partly Cloudy 42 5.6 31 -0.6 65 65 WNW 6 9 29.81 1010 10 16 0.00 0.00
8:52 pm 20:52 Mostly Clear 42 5.6 32 0 68 68 NW 7 11 29.83 1010 10 16 0.00 0.00
9:52 pm 21:52 Mostly Cloudy 41 5 31 -0.6 67 67 W 3 6 29.88 1012 10 16 0.00 0.00
10:52 pm 22:52 Cloudy 41 5 32 0 70 70 NNW 7 11 29.90 1012 10 16 0.00 0.00
11:52 pm 23:52 Cloudy 39 3.9 32 0 76 76 NNW 9 15 29.89 1012 10 16 0.00 0.00

Powered by AerisWeather